Change the Weather History Date:

Wednesday, November 14, 2012

  Actual Average (KJYM) Record (KJYM)
Temperature  
Mean Temperature 30 °F -  
Max Temperature 40 °F 45 °F 69 °F (1956)
Min Temperature 21 °F 28 °F 10 °F (1986)
Degree Days  
Heating Degree Days 34    
Moisture  
Dew Point 24 °F    
Average Humidity 77    
Maximum Humidity 94    
Minimum Humidity 55    
Precipitation  
Precipitation 0.00 in - - ()
Sea Level Pressure  
Sea Level Pressure 30.49 in    
Wind  
Wind Speed 2 mph (SE)    
Max Wind Speed 8 mph    
Max Gust Speed -    
Visibility 9 miles    
Events      
Averages and records for this station are not official NWS values.
T = Trace of Precipitation, MM = Missing Value Source: NWS Daily Summary

Daily Weather History Graph

Daily Weather History Graph

Search for Another Location

Airport or City:

Trip Planner

Search our weather history database for the weather conditions in past years. The results will help you decide how hot, cold, wet, or windy it might be!

Date:

Astronomy

Nov. 14, 2012 Rise Set
Actual Time 7:29 AM EST 5:19 PM EST
Civil Twilight 6:59 AM EST 5:49 PM EST
Nautical Twilight 6:25 AM EST 6:23 PM EST
Astronomical Twilight 5:52 AM EST 6:56 PM EST
Moon 8:18 AM EST (11/14) 6:06 PM EST (11/14)
Length of Visible Light 10h 50m
Length of Day
9h 50m
New Moon, 1% of the Moon is Illuminated
Nov 14
New Moon
Nov 20
First Quarter
Nov 28
Full
Dec 6
Last Quarter
Dec 13
New

Hourly Weather History & Observations

Time (EST) Temp. Windchill Dew Point Humidity Pressure Visibility Wind Dir Wind Speed Gust Speed Precip Events Conditions
12:15 AM 24.3 °F - 22.5 °F 93% 30.50 in 10.0 mi Calm Calm - N/A   Clear
12:34 AM 24.6 °F 20.3 °F 22.5 °F 91% 30.51 in 10.0 mi SE 3.5 mph - N/A   Clear
12:54 AM 24.1 °F - 22.1 °F 92% 30.51 in 10.0 mi Calm Calm - N/A   Clear
1:15 AM 23.7 °F - 21.7 °F 92% 30.51 in 10.0 mi Calm Calm - N/A   Clear
1:34 AM 23.2 °F - 21.0 °F 91% 30.51 in 10.0 mi Calm Calm - N/A   Clear
1:54 AM 23.5 °F - 21.2 °F 91% 30.51 in 10.0 mi Calm Calm - N/A   Clear
2:15 AM 23.0 °F - 21.0 °F 92% 30.51 in 10.0 mi Calm Calm - N/A   Clear
2:34 AM 23.0 °F - 21.2 °F 93% 30.51 in 10.0 mi Calm Calm - N/A   Clear
2:54 AM 23.0 °F - 21.0 °F 92% 30.52 in 10.0 mi Calm Calm - N/A   Clear
3:15 AM 22.6 °F - 21.0 °F 93% 30.53 in 10.0 mi Calm Calm - N/A   Clear
3:34 AM 22.8 °F - 21.0 °F 93% 30.53 in 10.0 mi Calm Calm - N/A   Clear
3:55 AM 22.8 °F - 21.0 °F 93% 30.53 in 10.0 mi Calm Calm - N/A   Clear
4:14 AM 22.5 °F - 20.5 °F 92% 30.53 in 10.0 mi Calm Calm - N/A   Clear
4:34 AM 22.1 °F - 20.7 °F 94% 30.53 in 7.0 mi Calm Calm - N/A   Clear
4:55 AM 21.9 °F - 20.1 °F 93% 30.53 in 7.0 mi Calm Calm - N/A   Clear
5:14 AM 21.9 °F - 20.1 °F 93% 30.53 in 7.0 mi Calm Calm - N/A   Clear
5:35 AM 22.1 °F - 20.3 °F 93% 30.53 in 7.0 mi Calm Calm - N/A   Clear
5:55 AM 21.9 °F - 20.1 °F 93% 30.53 in 7.0 mi Calm Calm - N/A   Clear
6:14 AM 21.6 °F - 19.8 °F 93% 30.54 in 7.0 mi Calm Calm - N/A   Clear
6:35 AM 21.6 °F - 19.8 °F 93% 30.53 in 7.0 mi Calm Calm - N/A   Clear
6:55 AM 21.7 °F 17.0 °F 20.1 °F 93% 30.53 in 7.0 mi SE 3.5 mph - N/A   Clear
7:14 AM 21.9 °F 17.2 °F 20.1 °F 93% 30.53 in 7.0 mi SE 3.5 mph - N/A   Clear
7:35 AM 22.8 °F 18.2 °F 20.8 °F 92% 30.54 in 7.0 mi SE 3.5 mph - N/A   Clear
7:55 AM 24.8 °F - 21.7 °F 88% 30.53 in 10.0 mi North - - N/A   Clear
8:14 AM 26.2 °F 20.7 °F 21.9 °F 84% 30.54 in 10.0 mi SE 4.6 mph - N/A   Clear
8:35 AM 27.5 °F - 22.5 °F 81% 30.55 in 10.0 mi Calm Calm - N/A   Clear
8:54 AM 28.8 °F 25.0 °F 22.3 °F 77% 30.55 in 10.0 mi SE 3.5 mph - N/A   Clear
9:15 AM 29.8 °F 24.9 °F 23.0 °F 76% 30.55 in 10.0 mi SE 4.6 mph - N/A   Clear
9:35 AM 30.9 °F 26.2 °F 22.6 °F 71% 30.55 in 10.0 mi SE 4.6 mph - N/A   Clear
9:54 AM 31.8 °F - 23.2 °F 70% 30.55 in 10.0 mi Calm Calm - N/A   Clear
10:15 AM 32.5 °F 29.3 °F 23.7 °F 70% 30.55 in 10.0 mi SSE 3.5 mph - N/A   Clear
10:34 AM 33.8 °F 30.8 °F 24.8 °F 70% 30.55 in 10.0 mi South 3.5 mph - N/A   Clear
10:54 AM 34.2 °F 28.2 °F 24.6 °F 68% 30.54 in 10.0 mi SE 6.9 mph - N/A   Clear
11:15 AM 34.9 °F 29.9 °F 24.1 °F 65% 30.55 in 10.0 mi SSE 5.8 mph - N/A   Clear
11:34 AM 35.8 °F 31.9 °F 24.6 °F 64% 30.54 in 10.0 mi SE 4.6 mph - N/A   Clear
11:54 AM 36.1 °F 31.4 °F 24.3 °F 62% 30.53 in 10.0 mi SSE 5.8 mph - N/A   Clear
12:15 PM 36.5 °F 32.7 °F 24.1 °F 61% 30.52 in 10.0 mi SSE 4.6 mph - N/A   Clear
12:34 PM 37.6 °F - 25.2 °F 61% 30.51 in 10.0 mi Calm Calm - N/A   Clear
12:54 PM 37.8 °F 32.5 °F 25.0 °F 60% 30.51 in 10.0 mi SE 6.9 mph - N/A   Clear
1:15 PM 38.8 °F 34.6 °F 25.9 °F 60% 30.50 in 10.0 mi ESE 5.8 mph - N/A   Clear
1:34 PM 39.0 °F 35.7 °F 25.7 °F 59% 30.49 in 10.0 mi ESE 4.6 mph - N/A   Clear
1:55 PM 39.6 °F 34.0 °F 25.9 °F 58% 30.48 in 10.0 mi ESE 8.1 mph - N/A   Clear
2:15 PM 39.9 °F - 24.8 °F 55% 30.48 in 10.0 mi Calm Calm - N/A   Clear
2:34 PM 39.6 °F 37.4 °F 25.2 °F 56% 30.47 in 10.0 mi SE 3.5 mph - N/A   Clear
2:55 PM 40.1 °F 38.0 °F 25.3 °F 56% 30.46 in 10.0 mi ESE 3.5 mph - N/A   Clear
3:15 PM 40.3 °F 37.1 °F 25.7 °F 56% 30.45 in 10.0 mi SSE 4.6 mph - N/A   Clear
3:34 PM 39.6 °F 36.3 °F 25.3 °F 57% 30.45 in 10.0 mi SE 4.6 mph - N/A   Clear
3:55 PM 39.2 °F 35.0 °F 25.5 °F 58% 30.45 in 10.0 mi ESE 5.8 mph - N/A   Clear
4:14 PM 39.2 °F 35.0 °F 25.5 °F 58% 30.45 in 10.0 mi SSE 5.8 mph - N/A   Clear
4:35 PM 38.7 °F 36.3 °F 25.7 °F 60% 30.46 in 10.0 mi SE 3.5 mph - N/A   Clear
4:54 PM 37.9 °F 35.5 °F 26.4 °F 63% 30.45 in 10.0 mi SE 3.5 mph - N/A   Clear
5:14 PM 36.7 °F 34.1 °F 26.8 °F 67% 30.45 in 10.0 mi SE 3.5 mph - N/A   Clear
5:35 PM 36.0 °F 32.1 °F 26.4 °F 68% 30.44 in 10.0 mi SE 4.6 mph - N/A   Clear
5:54 PM 36.0 °F 33.3 °F 26.2 °F 68% 30.44 in 10.0 mi SE 3.5 mph - N/A   Clear
6:14 PM 35.2 °F - 26.4 °F 70% 30.44 in 10.0 mi Calm Calm - N/A   Clear
6:35 PM 35.2 °F - 26.2 °F 70% 30.44 in 10.0 mi Calm Calm - N/A   Clear
6:54 PM 35.4 °F - 26.4 °F 70% 30.44 in 10.0 mi Calm Calm - N/A   Clear
7:14 PM 35.1 °F - 27.0 °F 72% 30.43 in 10.0 mi Calm Calm - N/A   Clear
7:35 PM 35.4 °F - 27.1 °F 72% 30.43 in 10.0 mi Calm Calm - N/A   Clear
7:54 PM 35.2 °F - 27.0 °F 72% 30.43 in 10.0 mi Calm Calm - N/A   Clear
8:14 PM 34.7 °F - 27.3 °F 74% 30.43 in 10.0 mi Calm Calm - N/A   Clear
8:35 PM 34.5 °F - 26.6 °F 73% 30.43 in 10.0 mi Calm Calm - N/A   Clear
8:54 PM 34.0 °F - 27.3 °F 77% 30.43 in 10.0 mi Calm Calm - N/A   Clear
9:35 PM 33.3 °F - 27.1 °F 78% 30.43 in 10.0 mi Calm Calm - N/A   Clear
9:54 PM 32.0 °F - 26.8 °F 81% 30.42 in 7.0 mi Calm Calm - N/A   Clear
10:15 PM 31.8 °F - 27.0 °F 82% 30.42 in 7.0 mi Calm Calm - N/A   Clear
10:34 PM 32.0 °F - 27.0 °F 82% 30.42 in 7.0 mi Calm Calm - N/A   Clear
10:54 PM 30.0 °F - 26.6 °F 87% 30.41 in 7.0 mi Calm Calm - N/A   Clear
11:15 PM 29.1 °F - 26.4 °F 90% 30.40 in 7.0 mi Calm Calm - N/A   Clear
11:34 PM 29.8 °F - 26.4 °F 87% 30.41 in 7.0 mi Calm Calm - N/A   Clear
11:54 PM 28.4 °F - 25.9 °F 90% 30.41 in 7.0 mi Calm Calm - N/A   Clear